User: anonymous   Login
Location: Bonnesvalyn
(49.1218°N, 3.3177°E)
Time: 04:58:32
(UTC+00:00)
Language:

Cosmos 1850 Rocket - Orbit

View from above orbital plane
View from above orbital plane
View from above satellite
View from above satellite

Ground track
Ground track

The orbit data is extracted from the following two-line orbital elements,

1 18096U 87049B   23154.51596279  .00000274  00000-0  10137-3 0  9999
2 18096  74.0405 186.4720 0021693 186.4655 173.6222 14.36897702884651
Epoch (UTC): 03 June 2023 12:22:59
Eccentricity: 0.0021693
inclination: 74.0405°
perigee height: 753 km
apogee height: 784 km
right ascension of ascending node: 186.4720°
argument of perigee: 186.4655°
revolutions per day: 14.36897702
mean anomaly at epoch: 173.6222°
orbit number at epoch: 88465

The dashed part of the orbit path shows where the satellite is in the earth's shadow,  

DLR